User: anonymous   Login
Location: Deep South Regional Star Gaze
(30.9929°N, 90.9586°W)
Time: 19:50:26
(UTC-06:00)
Language:

H-2A R/B - Orbit

View from above orbital plane
View from above orbital plane
View from above satellite
View from above satellite

Ground track
Ground track

The orbit data is extracted from the following two-line orbital elements,

1 26899U 01038B   18054.77598442 +.00002097 +00000-0 +60140-3 0  9992
2 26899 028.3414 323.3076 7120331 354.4175 000.7005 02.48652816142739
Epoch (UTC): 23 February 2018 18:37:25
Eccentricity: 0.7120331
inclination: 28.3414°
perigee height: 249 km
apogee height: 33023 km
right ascension of ascending node: 323.3076°
argument of perigee: 354.4175°
revolutions per day: 2.48652816
mean anomaly at epoch: 0.7005°
orbit number at epoch: 14273

The dashed part of the orbit path shows where the satellite is in the earth's shadow,  

DLR